Location: Tafessasset
(32.5899°N, 5.4824°W)
Time: 14:07:50
(UTC+00:00)

Cosmos 1727 Rocket - Pass Details

Date: 18 February 2020
Orbit: 962 x 996 km, 82.9° (Epoch: 29 March)

Event Time Altitude Azimuth Distance (km) Brightness Sun altitude
Rises 04:52:21 0° 178° (S) 3,655 7.0 -28.1°
Reaches altitude 10° 04:54:52 10° 176° (S) 2,706 6.3 -27.5°
Maximum altitude 05:01:01 71° 93° (E) 1,022 4.2 -26.2°
Drops below altitude 10° 05:07:09 10° 11° (N) 2,704 6.4 -24.9°
Sets 05:09:40 0° 9° (N) 3,652 7.1 -24.4°
